Tiempo cada hora Abertura

Hoy, 19 Abril, Lunes

Tiempo Temperatura Precipitaciones Viento Presión Humedad
00:00 +11°C° 0 mm 0 mps 731 mmHg 51%
01:00 +11°C° 0 mm 0 mps 731 mmHg 51%
02:00 +11°C° 0 mm 0 mps 731 mmHg 51%
03:00 +12°C° 0 mm 1 mps 731 mmHg 51%
04:00 +12°C° 0 mm 1 mps 731 mmHg 52%
05:00 +12°C° 0 mm 1 mps 731 mmHg 53%
06:00 +12°C° 0 mm 1 mps 731 mmHg 55%
07:00 +13°C° 0.2 mm 1 mps 731 mmHg 60%
08:00 +13°C° 0.2 mm 1 mps 731 mmHg 66%
09:00 +14°C° 0.2 mm 1 mps 731 mmHg 71%
10:00 +16°C° 0 mm 1 mps 731 mmHg 64%
11:00 +18°C° 0 mm 1 mps 731 mmHg 57%
12:00 +20°C° 0 mm 1 mps 730 mmHg 51%
13:00 +20°C° 0 mm 2 mps 730 mmHg 47%
14:00 +21°C° 0 mm 2 mps 729 mmHg 44%
15:00 +21°C° 0 mm 2 mps 729 mmHg 41%
16:00 +20°C° 0 mm 2 mps 729 mmHg 47%
17:00 +19°C° 0 mm 2 mps 728 mmHg 52%
18:00 +18°C° 0 mm 2 mps 728 mmHg 58%
19:00 +18°C° 0 mm 1 mps 728 mmHg 62%
20:00 +15°C° 0 mm 1 mps 729 mmHg 67%
21:00 +14°C° 0 mm 1 mps 729 mmHg 71%
22:00 +13°C° 0 mm 1 mps 729 mmHg 74%
23:00 +12°C° 0 mm 1 mps 729 mmHg 77%

Mañana, 20 Abril, Martes

Tiempo Temperatura Precipitaciones Viento Presión Humedad
00:00 +11°C° 0 mm 1 mps 729 mmHg 80%
01:00 +11°C° 0 mm 1 mps 728 mmHg 83%
02:00 +10°C° 0 mm 1 mps 728 mmHg 85%
03:00 +10°C° 0 mm 1 mps 728 mmHg 88%
04:00 +9°C° 0 mm 1 mps 728 mmHg 90%
05:00 +9°C° 0 mm 1 mps 728 mmHg 91%
06:00 +9°C° 0 mm 1 mps 728 mmHg 93%
07:00 +11°C° 0 mm 1 mps 728 mmHg 86%
08:00 +13°C° 0 mm 1 mps 728 mmHg 78%
09:00 +15°C° 0 mm 2 mps 728 mmHg 70%
10:00 +17°C° 0 mm 2 mps 728 mmHg 65%
11:00 +18°C° 0 mm 3 mps 728 mmHg 59%
12:00 +19°C° 0 mm 3 mps 728 mmHg 53%
13:00 +20°C° 0 mm 4 mps 727 mmHg 51%
14:00 +20°C° 0 mm 4 mps 727 mmHg 49%
15:00 +20°C° 0 mm 4 mps 726 mmHg 47%
16:00 +19°C° 0 mm 4 mps 726 mmHg 50%
17:00 +19°C° 0 mm 4 mps 726 mmHg 54%
18:00 +18°C° 0 mm 4 mps 726 mmHg 57%
19:00 +16°C° 0 mm 3 mps 726 mmHg 64%
20:00 +14°C° 0 mm 3 mps 726 mmHg 72%
21:00 +13°C° 0 mm 2 mps 727 mmHg 79%
22:00 +12°C° 0 mm 2 mps 727 mmHg 82%
23:00 +11°C° 0 mm 1 mps 726 mmHg 85%

Pasado mañana, 21 Abril, Miércoles

Tiempo Temperatura Precipitaciones Viento Presión Humedad
00:00 +11°C° 0 mm 1 mps 726 mmHg 89%
01:00 +10°C° 0 mm 1 mps 726 mmHg 90%
02:00 +10°C° 0 mm 1 mps 726 mmHg 91%
03:00 +10°C° 0 mm 1 mps 726 mmHg 93%
04:00 +10°C° 0 mm 1 mps 726 mmHg 93%
05:00 +10°C° 0 mm 1 mps 726 mmHg 93%
06:00 +10°C° 0 mm 1 mps 726 mmHg 93%
07:00 +12°C° 0 mm 1 mps 726 mmHg 86%
08:00 +13°C° 0 mm 1 mps 727 mmHg 80%
09:00 +15°C° 0 mm 2 mps 727 mmHg 73%
10:00 +15°C° 0 mm 2 mps 727 mmHg 68%
11:00 +16°C° 0 mm 2 mps 726 mmHg 63%
12:00 +17°C° 0 mm 3 mps 726 mmHg 58%
13:00 +18°C° 0 mm 3 mps 726 mmHg 55%
14:00 +19°C° 0 mm 3 mps 726 mmHg 52%
15:00 +19°C° 0 mm 4 mps 725 mmHg 49%
16:00 +18°C° 0.1 mm 3 mps 725 mmHg 57%
17:00 +17°C° 0.1 mm 3 mps 725 mmHg 66%
18:00 +15°C° 0.1 mm 2 mps 725 mmHg 74%
19:00 +15°C° 0 mm 2 mps 725 mmHg 77%
20:00 +14°C° 0 mm 1 mps 725 mmHg 80%
21:00 +14°C° 0 mm 1 mps 726 mmHg 83%
22:00 +13°C° 0.5 mm 1 mps 726 mmHg 86%
23:00 +13°C° 0.5 mm 1 mps 725 mmHg 89%

22 Abril, Jueves

Tiempo Temperatura Precipitaciones Viento Presión Humedad
00:00 +13°C° 0.5 mm 2 mps 725 mmHg 92%
01:00 +12°C° 1.1 mm 2 mps 725 mmHg 93%
02:00 +12°C° 1.1 mm 2 mps 725 mmHg 94%
03:00 +12°C° 1.1 mm 2 mps 725 mmHg 95%
04:00 +12°C° 0.3 mm 2 mps 725 mmHg 93%
05:00 +12°C° 0.3 mm 2 mps 725 mmHg 91%
06:00 +12°C° 0.3 mm 2 mps 725 mmHg 90%
07:00 +13°C° 0 mm 2 mps 725 mmHg 86%
08:00 +14°C° 0 mm 2 mps 726 mmHg 82%
09:00 +14°C° 0 mm 3 mps 726 mmHg 78%
10:00 +14°C° 0.1 mm 3 mps 726 mmHg 74%
11:00 +16°C° 0.1 mm 3 mps 726 mmHg 69%
12:00 +17°C° 0.1 mm 3 mps 726 mmHg 65%
13:00 +18°C° 0 mm 3 mps 726 mmHg 59%
14:00 +19°C° 0 mm 3 mps 726 mmHg 54%
15:00 +20°C° 0 mm 3 mps 726 mmHg 48%
16:00 +20°C° 0 mm 2 mps 726 mmHg 51%
17:00 +19°C° 0 mm 2 mps 726 mmHg 54%
18:00 +19°C° 0 mm 2 mps 726 mmHg 58%
19:00 +18°C° 0 mm 1 mps 727 mmHg 63%
20:00 +15°C° 0 mm 1 mps 727 mmHg 68%
21:00 +13°C° 0 mm 1 mps 727 mmHg 73%
22:00 +13°C° 0 mm 1 mps 727 mmHg 74%
23:00 +13°C° 0 mm 1 mps 727 mmHg 74%

23 Abril, Viernes

Tiempo Temperatura Precipitaciones Viento Presión Humedad
00:00 +13°C° 0 mm 1 mps 727 mmHg 75%
01:00 +12°C° 0 mm 1 mps 727 mmHg 76%
02:00 +12°C° 0 mm 1 mps 726 mmHg 76%
03:00 +12°C° 0 mm 1 mps 726 mmHg 77%
04:00 +12°C° 0 mm 1 mps 726 mmHg 76%
05:00 +12°C° 0 mm 2 mps 726 mmHg 76%
06:00 +12°C° 0 mm 2 mps 726 mmHg 75%
07:00 +14°C° 0 mm 2 mps 727 mmHg 69%
08:00 +16°C° 0 mm 2 mps 727 mmHg 63%
09:00 +18°C° 0 mm 2 mps 727 mmHg 57%
10:00 +19°C° 0 mm 3 mps 727 mmHg 53%
11:00 +20°C° 0 mm 3 mps 727 mmHg 50%
12:00 +21°C° 0 mm 3 mps 727 mmHg 46%
13:00 +22°C° 0 mm 3 mps 727 mmHg 43%
14:00 +24°C° 0 mm 3 mps 726 mmHg 41%
15:00 +24°C° 0 mm 3 mps 726 mmHg 38%
16:00 +22°C° 0 mm 3 mps 726 mmHg 43%
17:00 +21°C° 0 mm 2 mps 726 mmHg 47%
18:00 +21°C° 0 mm 2 mps 726 mmHg 52%
19:00 +19°C° 0 mm 2 mps 726 mmHg 55%
20:00 +18°C° 0 mm 2 mps 726 mmHg 57%
21:00 +18°C° 0 mm 1 mps 727 mmHg 59%
22:00 +16°C° 0 mm 1 mps 727 mmHg 63%
23:00 +15°C° 0 mm 1 mps 727 mmHg 67%

24 Abril, Sábado

Tiempo Temperatura Precipitaciones Viento Presión Humedad
00:00 +14°C° 0 mm 1 mps 727 mmHg 71%
01:00 +14°C° 0 mm 1 mps 727 mmHg 73%
02:00 +13°C° 0 mm 1 mps 727 mmHg 74%
03:00 +13°C° 0 mm 2 mps 727 mmHg 76%
04:00 +13°C° 0 mm 2 mps 727 mmHg 76%
05:00 +12°C° 0 mm 2 mps 727 mmHg 76%
06:00 +12°C° 0 mm 2 mps 727 mmHg 76%
07:00 +15°C° 0 mm 2 mps 727 mmHg 68%
08:00 +17°C° 0 mm 3 mps 727 mmHg 61%
09:00 +20°C° 0 mm 3 mps 727 mmHg 53%
10:00 +21°C° 0 mm 4 mps 727 mmHg 49%
11:00 +23°C° 0 mm 4 mps 727 mmHg 44%
12:00 +26°C° 0 mm 5 mps 726 mmHg 39%
13:00 +25°C° 0 mm 4 mps 726 mmHg 40%
14:00 +25°C° 0 mm 4 mps 726 mmHg 41%
15:00 +25°C° 0 mm 4 mps 725 mmHg 42%
16:00 +24°C° 0 mm 3 mps 725 mmHg 47%
17:00 +21°C° 0 mm 2 mps 725 mmHg 51%
18:00 +21°C° 0 mm 1 mps 725 mmHg 56%
19:00 +19°C° 0.3 mm 2 mps 725 mmHg 63%
20:00 +18°C° 0.3 mm 2 mps 725 mmHg 70%
21:00 +16°C° 0.3 mm 3 mps 725 mmHg 77%
22:00 +16°C° 0.1 mm 3 mps 725 mmHg 76%
23:00 +15°C° 0.1 mm 4 mps 725 mmHg 74%
Mostrar más

Necesitamos Su Consentimiento

Meteoprog y nuestros Proveedores de Servicios pueden almacenar y acceder a sus datos personales como cookies, identificadores de dispositivo u otras tecnologías similares de su dispositivo y procesar dichos datos para personalizar contenido y anuncios, además de ofrecer funciones de redes sociales y analizar el tráfico.

  • Almacenar y/o acceder a información en su dispositivo

    Se puede almacenar o acceder a cookies, identificadores de dispositivo u otra información de su dispositivo para los fines anteriormente indicados.

  • Anuncios y contenido personalizados, medición de anuncios y contenido, percepciones del público, y desarrollo de productos

    Los anuncios y el contenido pueden personalizarse en base a su perfil. Se pueden añadir más datos para personalizar mejor los anuncios y contenidos. Se puede medir el rendimiento de los anuncios y contenidos. Se puede obtener la percepción sobre el público que ha visto los anuncios y contenidos. Dichos datos pueden usarse para desarrollar o mejorar la experiencia del usuario, sistemas y software.

Al hacer clic en ‘Estoy De Acuerdo’ usted permitirá el uso de las cookies, identificadores de dispositivo, balizas web u otras tecnologías similares indicadas. Su configuración puede cambiarse desde el navegador de su dispositivo.

Para ciertos fines, los intereses legítimos pueden ser considerados por encima del consentimiento. Puede leer más sobre ello en nuestra Política de Privacidad y Cookies.